| time (UTC) | temp F | wind direction | speed MPH | gust MPH | rain 1hr in | rain 24hr in | rain mn in | humidity % | barometer mb |
| 20260503021552 | 42 | 217 | 0.0 | 0.0 | 0.00 | 0.00 | 0.01 | 69 | 1014.3 |
| 20260503021050 | 42 | 217 | 0.0 | 0.0 | 0.00 | 0.00 | 0.01 | 69 | 1014.4 |
| 20260503020551 | 42 | 217 | 0.0 | 0.0 | 0.00 | 0.00 | 0.01 | 68 | 1014.5 |
| 20260503020051 | 42 | 217 | 0.0 | 0.0 | 0.00 | 0.00 | 0.01 | 68 | 1014.4 |
| 20260503015550 | 42 | 217 | 0.0 | 0.0 | 0.00 | 0.00 | 0.01 | 69 | 1014.3 |
| 20260503015049 | 42 | 217 | 0.0 | 0.0 | 0.00 | 0.00 | 0.01 | 70 | 1014.3 |
| 20260503014600 | 42 | 217 | 0.0 | 0.0 | 0.00 | 0.00 | 0.01 | 70 | 1014.3 |
| 20260503014049 | 42 | 220 | 0.0 | 0.0 | 0.00 | 0.00 | 0.01 | 70 | 1014.3 |
| 20260503013549 | 42 | 261 | 0.0 | 0.0 | 0.00 | 0.00 | 0.01 | 70 | 1014.3 |
| 20260503013049 | 42 | 268 | 0.0 | 0.0 | 0.00 | 0.00 | 0.01 | 70 | 1014.5 |
| 20260503012549 | 42 | 285 | 0.0 | 0.0 | 0.00 | 0.00 | 0.01 | 70 | 1014.5 |
| 20260503012049 | 42 | 244 | 0.0 | 0.0 | 0.00 | 0.00 | 0.01 | 70 | 1014.5 |
| 20260503011551 | 42 | 235 | 0.0 | 0.0 | 0.00 | 0.00 | 0.01 | 69 | 1014.5 |
| 20260503011048 | 42 | 261 | 0.0 | 0.0 | 0.00 | 0.00 | 0.01 | 69 | 1014.5 |
| 20260503010553 | 42 | 277 | 0.0 | 0.0 | 0.00 | 0.00 | 0.01 | 69 | 1014.4 |
| 20260503010051 | 42 | 260 | 0.0 | 0.0 | 0.00 | 0.00 | 0.01 | 69 | 1014.3 |
| 20260503005548 | 42 | 228 | 0.0 | 0.0 | 0.00 | 0.00 | 0.01 | 69 | 1014.3 |
| 20260503005047 | 42 | 241 | 0.0 | 0.0 | 0.00 | 0.00 | 0.01 | 68 | 1014.3 |
| 20260503004550 | 42 | 244 | 0.0 | 0.0 | 0.00 | 0.00 | 0.01 | 68 | 1014.3 |
| 20260503004047 | 42 | 249 | 0.0 | 0.0 | 0.00 | 0.00 | 0.01 | 67 | 1014.2 |
| 20260503003548 | 42 | 204 | 0.0 | 0.0 | 0.00 | 0.00 | 0.01 | 67 | 1014.2 |
| 20260503003048 | 42 | 245 | 0.0 | 0.0 | 0.00 | 0.00 | 0.01 | 67 | 1014.2 |
| 20260503002547 | 42 | 245 | 0.0 | 0.0 | 0.00 | 0.00 | 0.01 | 67 | 1014.1 |
| 20260503002047 | 42 | 245 | 0.0 | 0.0 | 0.00 | 0.00 | 0.01 | 67 | 1014.0 |
| 20260503001550 | 42 | 276 | 0.0 | 0.0 | 0.00 | 0.00 | 0.01 | 67 | 1014.1 |
| 20260503001047 | 42 | 256 | 0.0 | 0.0 | 0.00 | 0.00 | 0.01 | 66 | 1014.0 |
| 20260503000547 | 43 | 234 | 0.0 | 0.0 | 0.00 | 0.00 | 0.01 | 66 | 1014.0 |
| 20260503000046 | 43 | 269 | 0.0 | 0.0 | 0.00 | 0.00 | 0.01 | 66 | 1013.9 |
| 20260502235548 | 43 | 269 | 0.0 | 0.0 | 0.00 | 0.00 | 0.01 | 66 | 1014.0 |
| 20260502235046 | 43 | 273 | 0.0 | 0.0 | 0.00 | 0.00 | 0.01 | 66 | 1013.9 |
| 20260502234553 | 43 | 256 | 0.0 | 0.0 | 0.00 | 0.00 | 0.01 | 65 | 1013.8 |
| 20260502234047 | 43 | 265 | 0.0 | 0.0 | 0.00 | 0.00 | 0.01 | 65 | 1013.9 |
| 20260502233547 | 43 | 259 | 0.0 | 0.0 | 0.00 | 0.00 | 0.01 | 64 | 1013.8 |
| 20260502233046 | 43 | 264 | 0.0 | 0.0 | 0.00 | 0.00 | 0.01 | 64 | 1013.9 |
| 20260502232545 | 43 | 237 | 0.0 | 0.0 | 0.00 | 0.00 | 0.01 | 63 | 1013.9 |
| 20260502232045 | 43 | 212 | 0.0 | 0.0 | 0.00 | 0.00 | 0.01 | 63 | 1013.8 |
| 20260502231545 | 43 | 271 | 0.0 | 0.0 | 0.00 | 0.00 | 0.01 | 63 | 1013.7 |
| 20260502231045 | 43 | 288 | 0.0 | 0.0 | 0.00 | 0.00 | 0.01 | 63 | 1013.6 |
| 20260502230545 | 43 | 242 | 0.0 | 0.0 | 0.00 | 0.00 | 0.01 | 63 | 1013.7 |
| 20260502230046 | 43 | 239 | 0.0 | 0.0 | 0.00 | 0.00 | 0.01 | 64 | 1013.7 |
| 20260502225544 | 43 | 288 | 0.0 | 0.0 | 0.00 | 0.00 | 0.01 | 65 | 1013.7 |
| 20260502225045 | 43 | 254 | 0.0 | 0.0 | 0.00 | 0.00 | 0.01 | 63 | 1013.7 |
| 20260502224547 | 43 | 245 | 0.0 | 0.0 | 0.00 | 0.00 | 0.01 | 64 | 1013.8 |
| 20260502224045 | 43 | 277 | 0.0 | 0.0 | 0.00 | 0.00 | 0.01 | 63 | 1013.7 |
| 20260502223545 | 44 | 264 | 0.0 | 0.0 | 0.00 | 0.00 | 0.01 | 64 | 1013.7 |
| 20260502223045 | 44 | 235 | 0.0 | 0.0 | 0.00 | 0.00 | 0.01 | 64 | 1013.7 |
| 20260502222544 | 44 | 266 | 0.0 | 0.0 | 0.00 | 0.00 | 0.01 | 64 | 1013.7 |
| 20260502222043 | 44 | 236 | 0.0 | 0.0 | 0.00 | 0.00 | 0.01 | 63 | 1013.7 |
| 20260502221543 | 44 | 198 | 0.0 | 0.0 | 0.00 | 0.00 | 0.01 | 63 | 1013.8 |
| 20260502221044 | 44 | 265 | 0.0 | 0.0 | 0.00 | 0.00 | 0.01 | 64 | 1013.8 |
| 20260502220544 | 44 | 243 | 0.0 | 0.0 | 0.00 | 0.00 | 0.01 | 64 | 1013.7 |
| 20260502220044 | 44 | 272 | 0.0 | 0.0 | 0.00 | 0.00 | 0.01 | 64 | 1013.7 |
| 20260502215544 | 44 | 271 | 0.0 | 0.0 | 0.00 | 0.00 | 0.01 | 64 | 1013.7 |
| 20260502215043 | 43 | 263 | 0.0 | 0.0 | 0.00 | 0.00 | 0.01 | 63 | 1013.9 |
| 20260502214554 | 44 | 308 | 0.0 | 0.0 | 0.00 | 0.00 | 0.01 | 64 | 1013.8 |
| 20260502214043 | 44 | 242 | 0.0 | 0.0 | 0.00 | 0.00 | 0.01 | 64 | 1013.7 |
| 20260502213543 | 44 | 260 | 0.0 | 0.0 | 0.00 | 0.00 | 0.01 | 64 | 1013.7 |
| 20260502213042 | 43 | 267 | 0.0 | 0.0 | 0.00 | 0.00 | 0.01 | 64 | 1013.7 |
| 20260502212543 | 44 | 284 | 0.0 | 0.0 | 0.00 | 0.00 | 0.01 | 64 | 1013.6 |
| 20260502212043 | 44 | 271 | 0.0 | 0.0 | 0.00 | 0.00 | 0.01 | 64 | 1013.7 |
| 20260502211543 | 44 | 216 | 0.0 | 0.0 | 0.00 | 0.00 | 0.01 | 65 | 1013.7 |
| 20260502211042 | 44 | 273 | 0.0 | 0.0 | 0.00 | 0.00 | 0.01 | 66 | 1013.6 |
| 20260502210542 | 44 | 255 | 0.0 | 0.0 | 0.00 | 0.00 | 0.01 | 66 | 1013.6 |
| 20260502210049 | 44 | 263 | 0.0 | 0.0 | 0.00 | 0.00 | 0.01 | 66 | 1013.6 |
| 20260502205542 | 44 | 266 | 0.0 | 0.0 | 0.00 | 0.00 | 0.01 | 66 | 1013.6 |
| 20260502205042 | 44 | 278 | 0.0 | 0.0 | 0.00 | 0.00 | 0.01 | 67 | 1013.6 |
| 20260502204550 | 44 | 221 | 0.0 | 0.0 | 0.00 | 0.00 | 0.01 | 68 | 1013.7 |
| 20260502204041 | 43 | 244 | 0.0 | 0.0 | 0.00 | 0.00 | 0.01 | 68 | 1013.6 |
| 20260502203542 | 42 | 262 | 0.0 | 0.0 | 0.00 | 0.00 | 0.01 | 69 | 1013.8 |
| 20260502203046 | 42 | 254 | 0.0 | 0.0 | 0.00 | 0.00 | 0.01 | 69 | 1013.8 |
| 20260502202540 | 42 | 199 | 0.0 | 0.0 | 0.00 | 0.00 | 0.01 | 69 | 1013.9 |
| 20260502202043 | 42 | 227 | 0.0 | 0.0 | 0.00 | 0.00 | 0.01 | 68 | 1014.0 |
| 20260502201540 | 42 | 232 | 0.0 | 0.0 | 0.00 | 0.00 | 0.01 | 67 | 1013.9 |
| 20260502201042 | 42 | 244 | 0.0 | 0.0 | 0.00 | 0.00 | 0.01 | 66 | 1014.0 |
| 20260502200540 | 43 | 269 | 0.0 | 0.0 | 0.00 | 0.00 | 0.01 | 65 | 1014.0 |
| 20260502200044 | 43 | 232 | 0.0 | 0.0 | 0.00 | 0.00 | 0.01 | 66 | 1014.1 |
| 20260502195539 | 42 | 196 | 0.0 | 0.0 | 0.00 | 0.00 | 0.01 | 66 | 1014.0 |
| 20260502195039 | 42 | 249 | 0.0 | 0.0 | 0.00 | 0.00 | 0.01 | 66 | 1014.1 |
| 20260502194539 | 42 | 271 | 0.0 | 0.0 | 0.00 | 0.00 | 0.01 | 66 | 1014.1 |
| 20260502194039 | 42 | 188 | 0.0 | 0.0 | 0.00 | 0.00 | 0.01 | 66 | 1014.2 |
| 20260502193539 | 42 | 230 | 0.0 | 0.0 | 0.00 | 0.00 | 0.01 | 67 | 1014.1 |
| 20260502193040 | 42 | 232 | 0.0 | 0.0 | 0.00 | 0.00 | 0.01 | 67 | 1014.2 |
| 20260502192539 | 42 | 230 | 0.0 | 0.0 | 0.00 | 0.00 | 0.01 | 67 | 1014.3 |
| 20260502192038 | 42 | 223 | 0.0 | 0.0 | 0.00 | 0.00 | 0.01 | 67 | 1014.3 |
| 20260502191542 | 42 | 265 | 0.0 | 0.0 | 0.00 | 0.00 | 0.01 | 68 | 1014.3 |
| 20260502191038 | 42 | 209 | 0.0 | 0.0 | 0.00 | 0.00 | 0.01 | 69 | 1014.3 |
| 20260502190538 | 42 | 249 | 0.0 | 0.0 | 0.00 | 0.00 | 0.01 | 69 | 1014.2 |
| 20260502190043 | 42 | 246 | 0.0 | 0.0 | 0.00 | 0.00 | 0.01 | 69 | 1014.3 |
| 20260502185538 | 42 | 240 | 0.0 | 0.0 | 0.00 | 0.00 | 0.01 | 69 | 1014.2 |
| 20260502185038 | 42 | 213 | 0.0 | 0.0 | 0.00 | 0.00 | 0.01 | 69 | 1014.2 |
| 20260502184540 | 42 | 215 | 0.0 | 0.0 | 0.00 | 0.00 | 0.01 | 69 | 1014.2 |
| 20260502184038 | 42 | 204 | 0.0 | 0.0 | 0.00 | 0.00 | 0.01 | 69 | 1014.1 |
| 20260502183538 | 42 | 228 | 0.0 | 0.0 | 0.00 | 0.00 | 0.01 | 70 | 1014.0 |
| 20260502183037 | 42 | 221 | 0.0 | 0.0 | 0.00 | 0.00 | 0.01 | 67 | 1014.1 |
| 20260502182536 | 43 | 240 | 0.0 | 0.0 | 0.00 | 0.00 | 0.00 | 67 | 1014.2 |
| 20260502182036 | 43 | 212 | 0.0 | 0.0 | 0.00 | 0.00 | 0.00 | 64 | 1014.1 |
| 20260502181543 | 43 | 242 | 0.0 | 0.0 | 0.00 | 0.00 | 0.00 | 61 | 1014.1 |
| 20260502181037 | 44 | 217 | 0.0 | 0.0 | 0.00 | 0.00 | 0.00 | 59 | 1014.0 |
| 20260502180537 | 44 | 175 | 0.0 | 0.0 | 0.00 | 0.00 | 0.00 | 58 | 1014.0 |
| 20260502164034 | 46 | 238 | 0.0 | 0.0 | 0.00 | 0.00 | 0.00 | 54 | 1013.9 |
| 20260502163534 | 46 | 279 | 0.0 | 0.0 | 0.00 | 0.00 | 0.00 | 54 | 1014.0 |
| 20260502163046 | 45 | 264 | 0.0 | 0.0 | 0.00 | 0.00 | 0.00 | 54 | 1014.1 |
| 20260502162536 | 46 | 276 | 0.0 | 0.0 | 0.00 | 0.00 | 0.00 | 54 | 1014.1 |
| 20260502162035 | 46 | 302 | 0.0 | 0.0 | 0.00 | 0.00 | 0.00 | 56 | 1014.1 |
| 20260502161534 | 44 | 331 | 0.0 | 0.0 | 0.00 | 0.00 | 0.00 | 56 | 1014.1 |
| 20260502161033 | 45 | 280 | 0.0 | 0.0 | 0.00 | 0.00 | 0.00 | 55 | 1014.1 |
| 20260502160533 | 45 | 254 | 0.0 | 0.0 | 0.00 | 0.00 | 0.00 | 54 | 1014.1 |
| 20260502152030 | 45 | 254 | 0.0 | 0.0 | 0.00 | 0.00 | 0.00 | 53 | 1014.0 |
| 20260502151546 | 45 | 261 | 0.0 | 0.0 | 0.00 | 0.00 | 0.00 | 53 | 1014.1 |
| 20260502151029 | 45 | 275 | 0.0 | 0.0 | 0.00 | 0.00 | 0.00 | 51 | 1014.0 |
| 20260502150528 | 45 | 286 | 0.0 | 0.0 | 0.00 | 0.00 | 0.00 | 53 | 1014.1 |
| 20260502130518 | 41 | 295 | 0.0 | 0.0 | 0.00 | 0.00 | 0.00 | 66 | 1014.6 |
| 20260502123515 | 40 | 271 | 0.0 | 0.0 | 0.00 | 0.00 | 0.00 | 70 | 1014.6 |
| 20260502123024 | 40 | 313 | 0.0 | 0.0 | 0.00 | 0.00 | 0.00 | 71 | 1014.7 |
| 20260502122516 | 39 | 270 | 0.0 | 0.0 | 0.00 | 0.00 | 0.00 | 72 | 1014.7 |
| 20260502122014 | 39 | 262 | 0.0 | 0.0 | 0.00 | 0.00 | 0.00 | 73 | 1014.7 |
| 20260502121514 | 39 | 240 | 0.0 | 0.0 | 0.00 | 0.00 | 0.00 | 73 | 1014.6 |
| 20260502121014 | 39 | 263 | 0.0 | 0.0 | 0.00 | 0.00 | 0.00 | 74 | 1014.5 |
| 20260502120517 | 39 | 244 | 0.0 | 0.0 | 0.00 | 0.00 | 0.00 | 74 | 1014.6 |
| 20260502115513 | 38 | 261 | 0.0 | 0.0 | 0.00 | 0.00 | 0.00 | 75 | 1014.6 |
| 20260502115013 | 38 | 231 | 0.0 | 0.0 | 0.00 | 0.00 | 0.00 | 76 | 1014.6 |
| 20260502114514 | 37 | 230 | 0.0 | 0.0 | 0.00 | 0.00 | 0.00 | 77 | 1014.6 |
| 20260502114013 | 37 | 258 | 0.0 | 0.0 | 0.00 | 0.00 | 0.00 | 78 | 1014.7 |
| 20260502113516 | 37 | 184 | 0.0 | 0.0 | 0.00 | 0.00 | 0.00 | 79 | 1014.7 |
| 20260502113011 | 37 | 185 | 0.0 | 0.0 | 0.00 | 0.00 | 0.00 | 80 | 1014.7 |
| 20260502112512 | 36 | 184 | 0.0 | 0.0 | 0.00 | 0.00 | 0.00 | 81 | 1014.6 |
| 20260502112011 | 36 | 170 | 0.0 | 0.0 | 0.00 | 0.00 | 0.00 | 82 | 1014.7 |
| 20260502111512 | 35 | 170 | 0.0 | 0.0 | 0.00 | 0.00 | 0.00 | 82 | 1014.7 |
| 20260502111011 | 35 | 175 | 0.0 | 0.0 | 0.00 | 0.00 | 0.00 | 83 | 1014.6 |
| 20260502110511 | 34 | 181 | 0.0 | 0.0 | 0.00 | 0.00 | 0.00 | 83 | 1014.6 |
| 20260502110018 | 34 | 193 | 0.0 | 0.0 | 0.00 | 0.00 | 0.00 | 83 | 1014.5 |
| 20260502105511 | 34 | 221 | 0.0 | 0.0 | 0.00 | 0.00 | 0.00 | 83 | 1014.5 |
| 20260502105008 | 34 | 259 | 0.0 | 0.0 | 0.00 | 0.00 | 0.00 | 83 | 1014.4 |
| 20260502104508 | 34 | 259 | 0.0 | 0.0 | 0.00 | 0.00 | 0.00 | 83 | 1014.4 |
| 20260502104008 | 34 | 259 | 0.0 | 0.0 | 0.00 | 0.00 | 0.00 | 83 | 1014.3 |
| 20260502103508 | 33 | 259 | 0.0 | 0.0 | 0.00 | 0.00 | 0.00 | 83 | 1014.3 |
| 20260502103007 | 33 | 248 | 0.0 | 0.0 | 0.00 | 0.00 | 0.00 | 84 | 1014.3 |
| 20260502102506 | 33 | 248 | 0.0 | 0.0 | 0.00 | 0.00 | 0.00 | 83 | 1014.2 |
| 20260502102005 | 33 | 248 | 0.0 | 0.0 | 0.00 | 0.00 | 0.00 | 83 | 1014.0 |
| 20260502101505 | 33 | 248 | 0.0 | 0.0 | 0.00 | 0.00 | 0.00 | 83 | 1014.1 |
| 20260502101004 | 33 | 248 | 0.0 | 0.0 | 0.00 | 0.00 | 0.00 | 83 | 1014.0 |
| 20260502100504 | 33 | 248 | 0.0 | 0.0 | 0.00 | 0.00 | 0.00 | 83 | 1014.0 |
| 20260502091502 | 33 | 264 | 0.0 | 0.0 | 0.00 | 0.00 | 0.00 | 82 | 1014.0 |
| 20260502091003 | 33 | 264 | 0.0 | 0.0 | 0.00 | 0.00 | 0.00 | 82 | 1013.8 |
| 20260502090600 | 33 | 264 | 0.0 | 0.0 | 0.00 | 0.00 | 0.00 | 82 | 1013.7 |
| 20260502090132 | 34 | 264 | 0.0 | 0.0 | 0.00 | 0.00 | 0.00 | 82 | 1013.7 |
| 20260502071050 | 36 | 273 | 0.0 | 0.0 | 0.00 | 0.00 | 0.00 | 78 | 1013.3 |
| 20260502070548 | 36 | 256 | 0.0 | 0.0 | 0.00 | 0.00 | 0.00 | 78 | 1013.3 |
| 20260502070051 | 36 | 267 | 0.0 | 0.0 | 0.00 | 0.00 | 0.00 | 78 | 1013.4 |
| 20260502065548 | 36 | 269 | 0.0 | 0.0 | 0.00 | 0.00 | 0.00 | 78 | 1013.5 |
| 20260502065047 | 36 | 257 | 0.0 | 0.0 | 0.00 | 0.00 | 0.00 | 78 | 1013.5 |
| 20260502064553 | 36 | 250 | 0.0 | 0.0 | 0.00 | 0.00 | 0.00 | 78 | 1013.6 |
| 20260502064047 | 36 | 263 | 0.0 | 0.0 | 0.00 | 0.00 | 0.00 | 77 | 1013.5 |
| 20260502063546 | 36 | 263 | 0.0 | 0.0 | 0.00 | 0.00 | 0.00 | 78 | 1013.5 |
| 20260502063046 | 36 | 250 | 0.0 | 0.0 | 0.00 | 0.00 | 0.00 | 77 | 1013.5 |
| 20260502062545 | 36 | 259 | 0.0 | 0.0 | 0.00 | 0.00 | 0.00 | 77 | 1013.6 |
| 20260502062044 | 36 | 259 | 0.0 | 0.0 | 0.00 | 0.00 | 0.00 | 77 | 1013.5 |
| 20260502061548 | 37 | 259 | 0.0 | 0.0 | 0.00 | 0.00 | 0.00 | 76 | 1013.5 |
| 20260502061042 | 37 | 259 | 0.0 | 0.0 | 0.00 | 0.00 | 0.00 | 76 | 1013.6 |
| 20260502060541 | 37 | 259 | 0.0 | 0.0 | 0.00 | 0.00 | 0.00 | 76 | 1013.5 |
| 20260502060041 | 37 | 259 | 0.0 | 0.0 | 0.00 | 0.00 | 0.00 | 75 | 1013.7 |
| 20260502055541 | 37 | 259 | 0.0 | 0.0 | 0.00 | 0.00 | 0.00 | 75 | 1013.7 |
| 20260502055040 | 37 | 259 | 0.0 | 0.0 | 0.00 | 0.00 | 0.00 | 75 | 1013.7 |
| 20260502054539 | 38 | 259 | 0.0 | 0.0 | 0.00 | 0.00 | 0.00 | 75 | 1013.7 |
| 20260502054039 | 38 | 259 | 0.0 | 0.0 | 0.00 | 0.00 | 0.00 | 75 | 1013.7 |
| 20260502053538 | 38 | 259 | 0.0 | 0.0 | 0.00 | 0.00 | 0.00 | 74 | 1013.7 |
| 20260502053037 | 38 | 259 | 0.0 | 0.0 | 0.00 | 0.00 | 0.00 | 74 | 1013.7 |
| 20260502052536 | 38 | 261 | 0.0 | 0.0 | 0.00 | 0.00 | 0.00 | 73 | 1013.7 |
| 20260502052036 | 39 | 268 | 0.0 | 0.0 | 0.00 | 0.00 | 0.00 | 73 | 1013.7 |
| 20260502051534 | 39 | 290 | 0.0 | 0.0 | 0.00 | 0.00 | 0.00 | 72 | 1013.7 |
| 20260502051034 | 39 | 263 | 0.0 | 0.0 | 0.00 | 0.00 | 0.00 | 72 | 1013.5 |
| 20260502050535 | 39 | 258 | 0.0 | 0.0 | 0.00 | 0.00 | 0.00 | 72 | 1013.5 |
| 20260502050032 | 39 | 281 | 0.0 | 0.0 | 0.00 | 0.00 | 0.00 | 71 | 1013.5 |
| 20260502045532 | 39 | 298 | 0.0 | 0.0 | 0.00 | 0.00 | 0.00 | 71 | 1013.4 |
| 20260502045031 | 39 | 257 | 0.0 | 0.0 | 0.00 | 0.00 | 0.00 | 71 | 1013.3 |
| 20260502044530 | 39 | 259 | 0.0 | 0.0 | 0.00 | 0.00 | 0.00 | 71 | 1013.2 |
| 20260502044029 | 40 | 280 | 0.0 | 0.0 | 0.00 | 0.00 | 0.00 | 70 | 1013.2 |
| 20260502043529 | 40 | 290 | 0.0 | 0.0 | 0.00 | 0.00 | 0.00 | 70 | 1012.9 |
| 20260502043027 | 40 | 323 | 0.0 | 0.0 | 0.00 | 0.00 | 0.00 | 70 | 1012.9 |
| 20260502042525 | 40 | 298 | 0.0 | 0.0 | 0.00 | 0.00 | 0.00 | 69 | 1012.8 |
| 20260502042024 | 41 | 288 | 0.0 | 0.0 | 0.00 | 0.00 | 0.00 | 69 | 1012.7 |
| 20260502041529 | 41 | 289 | 0.0 | 0.0 | 0.00 | 0.00 | 0.00 | 68 | 1012.7 |
| 20260502041022 | 41 | 326 | 0.0 | 0.0 | 0.00 | 0.00 | 0.00 | 68 | 1012.7 |
| 20260502040523 | 42 | 314 | 0.0 | 0.0 | 0.00 | 0.00 | 0.00 | 69 | 1012.7 |
| 20260502040021 | 42 | 274 | 0.0 | 0.0 | 0.00 | 0.00 | 0.00 | 70 | 1012.8 |
| 20260502035520 | 42 | 236 | 0.0 | 0.0 | 0.00 | 0.00 | 0.05 | 72 | 1012.8 |
| 20260502035023 | 42 | 280 | 0.0 | 0.0 | 0.00 | 0.00 | 0.05 | 74 | 1012.7 |
| 20260502034520 | 42 | 265 | 0.0 | 0.0 | 0.00 | 0.00 | 0.05 | 75 | 1012.8 |
| 20260502034020 | 43 | 254 | 0.0 | 0.0 | 0.00 | 0.00 | 0.05 | 75 | 1012.7 |
| 20260502033519 | 43 | 273 | 0.0 | 0.0 | 0.00 | 0.00 | 0.05 | 75 | 1012.8 |
| 20260502033025 | 43 | 263 | 0.0 | 0.0 | 0.00 | 0.00 | 0.05 | 75 | 1012.7 |
| 20260502032520 | 43 | 266 | 0.0 | 0.0 | 0.00 | 0.00 | 0.05 | 75 | 1012.7 |
| 20260502032025 | 43 | 264 | 0.0 | 0.0 | 0.00 | 0.00 | 0.05 | 75 | 1012.7 |
| 20260502031519 | 43 | 258 | 0.0 | 0.0 | 0.00 | 0.00 | 0.05 | 76 | 1012.7 |
| 20260502031020 | 43 | 269 | 0.0 | 0.0 | 0.00 | 0.00 | 0.05 | 76 | 1012.6 |
| 20260502030518 | 43 | 245 | 0.0 | 0.0 | 0.00 | 0.00 | 0.05 | 77 | 1012.7 |
| 20260502030019 | 43 | 236 | 0.0 | 0.0 | 0.00 | 0.00 | 0.05 | 77 | 1012.7 |
| 20260502025519 | 43 | 265 | 0.0 | 0.0 | 0.00 | 0.00 | 0.05 | 78 | 1012.8 |
| 20260502025019 | 42 | 209 | 0.0 | 0.0 | 0.00 | 0.00 | 0.05 | 78 | 1012.7 |
| 20260502024520 | 42 | 235 | 0.0 | 0.0 | 0.00 | 0.00 | 0.05 | 78 | 1012.8 |
| 20260502024022 | 42 | 186 | 0.0 | 0.0 | 0.00 | 0.00 | 0.05 | 78 | 1012.7 |
| 20260502023518 | 42 | 207 | 0.0 | 0.0 | 0.00 | 0.00 | 0.05 | 78 | 1012.7 |
| 20260502023018 | 42 | 210 | 0.0 | 0.0 | 0.00 | 0.00 | 0.05 | 78 | 1012.7 |
| 20260502022519 | 42 | 185 | 0.0 | 0.0 | 0.00 | 0.00 | 0.05 | 77 | 1012.8 |
| 20260502022018 | 42 | 217 | 0.0 | 0.0 | 0.00 | 0.00 | 0.05 | 77 | 1012.8 |